Faribault, MN

10:59 PM CST on February 10, 2016 (GMT -0600)
Faribault Municipal

Weather History for KFBL - March, 2014

Change the Weather History Date:

Saturday, March 15, 2014

  Actual Average Record
Temperature  
Mean Temperature 29 °F -  
Max Temperature 32 °F 39 °F 71 °F (2003)
Min Temperature 24 °F 20 °F -8 °F (1956)
Degree Days  
Heating Degree Days 36    
Moisture  
Dew Point 14 °F    
Average Humidity 54    
Maximum Humidity 64    
Minimum Humidity 43    
Precipitation  
Precipitation 0.00 in - - ()
Sea Level Pressure  
Sea Level Pressure 30.15 in    
Wind  
Wind Speed 7 mph (North)    
Max Wind Speed 13 mph    
Max Gust Speed -    
Visibility 10 miles    
Events      
Averages and records for this station are not official NWS values.
T = Trace of Precipitation, MM = Missing Value Source: NWS Daily Summary

Daily Weather History Graph

Daily Weather History Graph

Search for Another Location

Airport or City:

Trip Planner

Search our weather history database for the weather conditions in past years. The results will help you decide how hot, cold, wet, or windy it might be!

Date:

Astronomy

Mar. 15, 2014 Rise Set
Actual Time 7:25 AM CDT 7:19 PM CDT
Civil Twilight 6:56 AM CDT 7:48 PM CDT
Nautical Twilight 6:22 AM CDT 8:22 PM CDT
Astronomical Twilight 5:48 AM CDT 8:56 PM CDT
Moon 6:39 PM CDT (3/15) 6:39 AM CDT (3/15)
Length of Visible Light 12h 51m
Length of Day
11h 53m
Waxing Gibbous, 99% of the Moon is Illuminated
Mar 15
Waxing Gibbous
Mar 16
Full
Mar 23
Last Quarter
Mar 30
New
Apr 7
First Quarter

Hourly Weather History & Observations

Time (CDT) Temp. Windchill Dew Point Humidity Pressure Visibility Wind Dir Wind Speed Gust Speed Precip Events Conditions
12:14 AM 32.0 °F 24.8 °F 17.6 °F 55% 29.96 in 10.0 mi WNW 8.1 mph - N/A   Clear
12:34 AM 30.2 °F 23.4 °F 17.6 °F 60% 29.96 in 10.0 mi NW 6.9 mph - N/A   Clear
12:54 AM 30.2 °F 24.3 °F 17.6 °F 60% 29.97 in 10.0 mi NW 5.8 mph - N/A   Clear
1:14 AM 30.2 °F 25.4 °F 17.6 °F 60% 29.97 in 10.0 mi WNW 4.6 mph - N/A   Clear
1:34 AM 30.2 °F 26.7 °F 17.6 °F 60% 29.98 in 10.0 mi WNW 3.5 mph - N/A   Clear
1:54 AM 28.4 °F - 17.6 °F 64% 29.98 in 10.0 mi Calm Calm - N/A   Clear
2:14 AM 28.4 °F 23.3 °F 17.6 °F 64% 29.98 in 10.0 mi NNW 4.6 mph - N/A   Clear
2:34 AM 28.4 °F 23.3 °F 15.8 °F 59% 29.98 in 10.0 mi NNW 4.6 mph - N/A   Clear
2:54 AM 28.4 °F 21.2 °F 15.8 °F 59% 29.97 in 10.0 mi North 6.9 mph - N/A   Clear
3:14 AM 28.4 °F 21.2 °F 15.8 °F 59% 29.97 in 10.0 mi North 6.9 mph - N/A   Clear
3:34 AM 28.4 °F 23.3 °F 14.0 °F 55% 29.98 in 10.0 mi NNW 4.6 mph - N/A   Clear
3:53 AM 28.4 °F 24.6 °F 15.8 °F 59% 29.99 in 10.0 mi NNW 3.5 mph - N/A   Clear
4:14 AM 26.6 °F 21.2 °F 15.8 °F 64% 29.99 in 10.0 mi NNW 4.6 mph - N/A   Clear
4:34 AM 26.6 °F 22.6 °F 15.8 °F 64% 30.01 in 10.0 mi West 3.5 mph - N/A   Scattered Clouds
4:54 AM 26.6 °F 22.6 °F 15.8 °F 64% 30.01 in 10.0 mi NNW 3.5 mph - N/A   Scattered Clouds
5:14 AM 26.6 °F - 15.8 °F 64% 30.01 in 10.0 mi Calm Calm - N/A   Scattered Clouds
5:33 AM 26.6 °F 21.2 °F 15.8 °F 64% 30.02 in 10.0 mi NNW 4.6 mph - N/A   Mostly Cloudy
5:54 AM 26.6 °F 22.6 °F 15.8 °F 64% 30.03 in 10.0 mi North 3.5 mph - N/A   Scattered Clouds
6:14 AM 26.6 °F 19.1 °F 15.8 °F 64% 30.03 in 10.0 mi North 6.9 mph - N/A   Overcast
6:33 AM 26.6 °F 19.1 °F 15.8 °F 64% 30.03 in 10.0 mi North 6.9 mph - N/A   Overcast
6:54 AM 26.6 °F 20.0 °F 15.8 °F 64% 30.04 in 10.0 mi North 5.8 mph - N/A   Overcast
7:14 AM 26.6 °F 19.1 °F 15.8 °F 64% 30.04 in 10.0 mi NNE 6.9 mph - N/A   Overcast
7:33 AM 26.6 °F 16.8 °F 14.0 °F 59% 30.04 in 10.0 mi North 10.4 mph - N/A   Overcast
7:54 AM 26.6 °F 22.6 °F 15.8 °F 64% 30.06 in 10.0 mi NNE 3.5 mph - N/A   Overcast
8:14 AM 26.6 °F 20.0 °F 14.0 °F 59% 30.07 in 10.0 mi NNE 5.8 mph - N/A   Overcast
8:34 AM 26.6 °F 20.0 °F 14.0 °F 59% 30.08 in 10.0 mi NE 5.8 mph - N/A   Overcast
8:54 AM 26.6 °F 21.2 °F 14.0 °F 59% 30.09 in 10.0 mi NE 4.6 mph - N/A   Overcast
9:14 AM 26.6 °F 17.5 °F 12.2 °F 55% 30.08 in 10.0 mi NE 9.2 mph - N/A   Overcast
9:34 AM 26.6 °F 17.5 °F 12.2 °F 55% 30.09 in 10.0 mi NE 9.2 mph - N/A   Overcast
9:54 AM 28.4 °F 21.2 °F 14.0 °F 55% 30.10 in 10.0 mi NNE 6.9 mph - N/A   Overcast
10:14 AM 28.4 °F 19.7 °F 12.2 °F 51% 30.11 in 10.0 mi NE 9.2 mph - N/A   Mostly Cloudy
10:34 AM 28.4 °F 19.7 °F 12.2 °F 51% 30.12 in 10.0 mi NNE 9.2 mph - N/A   Mostly Cloudy
10:54 AM 28.4 °F 20.4 °F 14.0 °F 55% 30.13 in 10.0 mi NNE 8.1 mph - N/A   Mostly Cloudy
11:14 AM 28.4 °F 20.4 °F 14.0 °F 55% 30.14 in 10.0 mi NE 8.1 mph - N/A   Scattered Clouds
11:34 AM 28.4 °F 20.4 °F 12.2 °F 51% 30.14 in 10.0 mi ENE 8.1 mph - N/A   Mostly Cloudy
11:54 AM 28.4 °F 21.2 °F 12.2 °F 51% 30.15 in 10.0 mi ENE 6.9 mph - N/A   Overcast
12:14 PM 30.2 °F 23.4 °F 14.0 °F 51% 30.15 in 10.0 mi NNE 6.9 mph - N/A   Mostly Cloudy
12:34 PM 30.2 °F 22.6 °F 14.0 °F 51% 30.16 in 10.0 mi NE 8.1 mph - N/A   Scattered Clouds
12:54 PM 30.2 °F 21.9 °F 14.0 °F 51% 30.17 in 10.0 mi North 9.2 mph - N/A   Mostly Cloudy
1:14 PM 30.2 °F 22.6 °F 15.8 °F 55% 30.18 in 10.0 mi NNE 8.1 mph - N/A   Overcast
1:34 PM 30.2 °F 23.4 °F 15.8 °F 55% 30.18 in 10.0 mi NNE 6.9 mph - N/A   Scattered Clouds
1:54 PM 30.2 °F 21.9 °F 15.8 °F 55% 30.18 in 10.0 mi North 9.2 mph - N/A   Scattered Clouds
2:14 PM 30.2 °F 22.6 °F 14.0 °F 51% 30.19 in 10.0 mi North 8.1 mph - N/A   Scattered Clouds
2:34 PM 30.2 °F 21.9 °F 15.8 °F 55% 30.19 in 10.0 mi North 9.2 mph - N/A   Scattered Clouds
2:54 PM 30.2 °F 22.6 °F 15.8 °F 55% 30.19 in 10.0 mi NNE 8.1 mph - N/A   Clear
3:14 PM 30.2 °F 22.6 °F 15.8 °F 55% 30.20 in 10.0 mi NNE 8.1 mph - N/A   Clear
3:34 PM 32.0 °F 23.6 °F 14.0 °F 48% 30.20 in 10.0 mi NNE 10.4 mph - N/A   Clear
3:54 PM 32.0 °F 22.5 °F 14.0 °F 48% 30.20 in 10.0 mi North 12.7 mph - N/A   Clear
4:14 PM 32.0 °F 25.6 °F 14.0 °F 48% 30.21 in 10.0 mi NNE 6.9 mph - N/A   Scattered Clouds
4:34 PM 32.0 °F 24.2 °F 14.0 °F 48% 30.21 in 10.0 mi North 9.2 mph - N/A   Scattered Clouds
4:53 PM 32.0 °F 23.6 °F 12.2 °F 44% 30.22 in 10.0 mi NNE 10.4 mph - N/A   Scattered Clouds
5:14 PM 30.2 °F 21.9 °F 12.2 °F 47% 30.22 in 10.0 mi NNE 9.2 mph - N/A   Mostly Cloudy
5:33 PM 32.0 °F 24.2 °F 12.2 °F 44% 30.23 in 10.0 mi NNE 9.2 mph - N/A   Mostly Cloudy
5:54 PM 32.0 °F 25.6 °F 12.2 °F 44% 30.24 in 10.0 mi North 6.9 mph - N/A   Clear
6:14 PM 32.0 °F 24.2 °F 12.2 °F 44% 30.25 in 10.0 mi NNE 9.2 mph - N/A   Clear
6:33 PM 30.2 °F 21.3 °F 10.4 °F 44% 30.26 in 10.0 mi North 10.4 mph - N/A   Clear
6:54 PM 30.2 °F 22.6 °F 12.2 °F 47% 30.27 in 10.0 mi North 8.1 mph - N/A   Clear
7:14 PM 30.2 °F 24.3 °F 12.2 °F 47% 30.28 in 10.0 mi North 5.8 mph - N/A   Clear
7:33 PM 30.2 °F 24.3 °F 12.2 °F 47% 30.28 in 10.0 mi North 5.8 mph - N/A   Clear
7:54 PM 30.2 °F 24.3 °F 12.2 °F 47% 30.29 in 10.0 mi North 5.8 mph - N/A   Clear
8:14 PM 30.2 °F 23.4 °F 10.4 °F 44% 30.30 in 10.0 mi NNE 6.9 mph - N/A   Clear
8:33 PM 28.4 °F 21.2 °F 10.4 °F 47% 30.31 in 10.0 mi North 6.9 mph - N/A   Clear
8:54 PM 28.4 °F 21.2 °F 10.4 °F 47% 30.31 in 10.0 mi North 6.9 mph - N/A   Clear
9:14 PM 28.4 °F 21.2 °F 10.4 °F 47% 30.32 in 10.0 mi North 6.9 mph - N/A   Clear
9:34 PM 28.4 °F 20.4 °F 10.4 °F 47% 30.33 in 10.0 mi North 8.1 mph - N/A   Clear
9:54 PM 28.4 °F 22.2 °F 10.4 °F 47% 30.34 in 10.0 mi North 5.8 mph - N/A   Clear
10:14 PM 28.4 °F 20.4 °F 8.6 °F 43% 30.35 in 10.0 mi North 8.1 mph - N/A   Clear
10:34 PM 28.4 °F 20.4 °F 8.6 °F 43% 30.35 in 10.0 mi North 8.1 mph - N/A   Clear
10:54 PM 26.6 °F 18.2 °F 8.6 °F 47% 30.35 in 10.0 mi North 8.1 mph - N/A   Clear
11:14 PM 26.6 °F 17.5 °F 8.6 °F 47% 30.35 in 10.0 mi North 9.2 mph - N/A   Clear
11:34 PM 26.6 °F 18.2 °F 6.8 °F 43% 30.36 in 10.0 mi North 8.1 mph - N/A   Clear
11:54 PM 24.8 °F 16.1 °F 6.8 °F 46% 30.37 in 10.0 mi NNE 8.1 mph - N/A   Clear